SCOUT X-4 DEB, 732

Orbit data source: Space-Track

SCOUT X-4 DEB, 732 is space debris in LEO originally from a launch on Thu, 19 Dec 1963 UTC launched from the Air Force Western Test Range (AFWTR). Debris objects in space refer to the collection of defunct objects orbiting the Earth. Examples of debris include non-operational satellites, rocket bodies, and fragments generated from explosions, collisions, or faulty payload assembly.

Loading next visibility...
Identifier
732, 1963-053H
Orbit
LEO
Country
Flag of USUS
Related business
Manufacturer
Unknown
Mission
Spacecraft
Bus & Motor
Unknown
Mass
Unknown
Launch date (UTC)
1963-12-19 (62 years ago)
Launch vehicle
Unknown
Launch site
Air Force Western Test Range (AFWTR)
Object type
Payload
Rocket body
Debris
Shape & HBR
Unknown shape, 0.1 m
Radar Cross Section
Small (<0.1 m²)

Expand to show TLE details & history
Last TLE update: 14 hours ago

TLE from 14 hours ago
0 SCOUT X-4 DEB
1 00732U 63053H   26044.62426477  .00017094  00000-0  48730-2 0  9998
2 00732  78.5511  20.5284 0409857  15.4597 345.8650 14.05715859957799
Epoch: 2026-02-13T14:58Z
TLE epoch observation values (Epoch: 2026-02-13T14:58:56.476Z)
Latitude
0.00005°
Longitude
12.13409°
Altitude
589.347 km
Speed
7.714 km/s
True Right ascension
01h 22m 06s
True Declination
0° 00' 00"
Sunlit
Object was in daylight at epoch
Visualization orbit readout
Latitude
Unknown
Longitude
Unknown
Altitude
Unknown
Speed
Unknown
Apparent Right ascension
Unknown
Apparent Declination
Unknown
Sunlit
N/A
Visualization observer readout
Local Sidereal Time
07:28:43
Azimuth
Unknown
Elevation
Unknown
Doppler factor
Unknown
Orbital elements
Apogee altitude
1,168.517 km
Perigee altitude
574.263 km
Semi-major axis
7,249.527 km
Eccentricity
0.04099
Inclination
78.5511°
RAAN
20.5284°
Arg. of periapsis
15.4597°
True anomaly
344.65832°
Mean anomaly
345.865°
Eccentric anomaly
345.26782°
Mean motion
3.51624 °/min
Orbital period
102.38 mins
BSTAR
0.004873
Loading maneuver chart data...
Computing Atmospheric mass density...
Loading historical data...
Loading historical data...
Loading historical data...
Loading historical data...
Loading historical data...
Loading historical data...
Loading historical data...

Documentation

Showing up to 5 results
|